,,,PA_Meas_PMT16A,,PR_Meas_QMR101_102,,RH_Meas_QMH101,,SR_Meas_QMS101,,TA_Meas_QMH101,,GenWind,,GenWind,
date,time,status,PA,status,PR,status,RH,status,SR,status,TA,status,DirAvg,status,SpdAvg,
2008-04-04, 00:00:04,VALID,1005.83,VALID,0,VALID,92.4544,VALID,0,VALID,23.7248,VALID,18,VALID,0.233594,
2008-04-04, 00:01:04,VALID,1005.86,VALID,0,VALID,92.5612,VALID,0,VALID,23.7053,VALID,18,VALID,0.244141,
2008-04-04, 00:02:04,VALID,1005.87,VALID,0,VALID,92.4925,VALID,0,VALID,23.7053,VALID,18,VALID,0.212109,
2008-04-04, 00:03:04,VALID,1005.85,VALID,0,VALID,92.4468,VALID,0,VALID,23.7053,VALID,18,VALID,0,
2008-04-04, 00:04:04,VALID,1005.84,VALID,0,VALID,92.4544,VALID,0,VALID,23.6859,VALID,18,VALID,0.0410156,
2008-04-04, 00:05:04,VALID,1005.85,VALID,0,VALID,92.5917,VALID,0,VALID,23.7071,VALID,18,VALID,0,
2008-04-04, 00:06:04,VALID,1005.84,VALID,0,VALID,92.607,VALID,0,VALID,23.6859,VALID,18,VALID,0.028125,
2008-04-04, 00:07:04,VALID,1005.83,VALID,0,VALID,92.7367,VALID,0,VALID,23.6664,VALID,18,VALID,0.280469,
2008-04-04, 00:08:04,VALID,1005.84,VALID,0,VALID,92.8587,VALID,0,VALID,23.6275,VALID,18,VALID,0.0820313,
2008-04-04, 00:09:04,VALID,1005.83,VALID,0,VALID,92.935,VALID,0.100563,VALID,23.6275,VALID,12,VALID,0.2375,
2008-04-04, 00:10:04,VALID,1005.82,VALID,0,VALID,93.0495,VALID,0,VALID,23.6275,VALID,10,VALID,0.398438,
2008-04-04, 00:11:04,VALID,1005.84,VALID,0,VALID,93.1334,VALID,0,VALID,23.608,VALID,7,VALID,0.386719,
2008-04-04, 00:12:04,VALID,1005.83,VALID,0,VALID,93.3012,VALID,0,VALID,23.5885,VALID,7,VALID,0.108984,
2008-04-04, 00:13:04,VALID,1005.82,VALID,0,VALID,93.4462,VALID,0.100563,VALID,23.5868,VALID,7,VALID,0,
2008-04-04, 00:14:04,VALID,1005.79,VALID,0,VALID,93.4462,VALID,0,VALID,23.5691,VALID,7,VALID,0,
2008-04-04, 00:15:04,VALID,1005.73,VALID,0,VALID,93.4843,VALID,0,VALID,23.5478,VALID,7,VALID,0,
2008-04-04, 00:16:04,VALID,1005.72,VALID,0,VALID,93.5758,VALID,0.100563,VALID,23.5302,VALID,7,VALID,0,
2008-04-04, 00:17:04,VALID,1005.71,VALID,0,VALID,93.6292,VALID,0.100563,VALID,23.5302,VALID,7,VALID,0,
2008-04-04, 00:18:04,VALID,1005.67,VALID,0,VALID,93.6598,VALID,0,VALID,23.4894,VALID,7,VALID,0,
2008-04-04, 00:19:04,VALID,1005.66,VALID,0,VALID,93.7208,VALID,0,VALID,23.5107,VALID,7,VALID,0,
2008-04-04, 00:20:04,VALID,1005.63,VALID,0,VALID,93.82,VALID,0,VALID,23.4718,VALID,7,VALID,0,
2008-04-04, 00:21:04,VALID,1005.62,VALID,0,VALID,93.9039,VALID,0.100563,VALID,23.4718,VALID,7,VALID,0,
2008-04-04, 00:22:04,VALID,1005.58,VALID,0,VALID,93.9802,VALID,0,VALID,23.4328,VALID,7,VALID,0,
2008-04-04, 00:23:04,VALID,1005.59,VALID,0,VALID,94.0488,VALID,0.100563,VALID,23.4328,VALID,7,VALID,0,
2008-04-04, 00:24:04,VALID,1005.58,VALID,0,VALID,94.087,VALID,0,VALID,23.3939,VALID,7,VALID,0,
2008-04-04, 00:25:04,VALID,1005.57,VALID,0,VALID,94.2472,VALID,0.100563,VALID,23.3939,VALID,7,VALID,0,
2008-04-04, 00:26:04,VALID,1005.6,VALID,0,VALID,94.3921,VALID,0.100563,VALID,23.3727,VALID,7,VALID,0,
2008-04-04, 00:27:04,VALID,1005.57,VALID,0,VALID,94.4455,VALID,0,VALID,23.3939,VALID,7,VALID,0,
2008-04-04, 00:28:04,VALID,1005.6,VALID,0,VALID,94.4761,VALID,0.100563,VALID,23.3939,VALID,6,VALID,0,
2008-04-04, 00:29:04,VALID,1005.57,VALID,0,VALID,94.4989,VALID,0,VALID,23.3939,VALID,4,VALID,0.637109,
2008-04-04, 00:30:04,VALID,1005.6,VALID,0,VALID,94.5447,VALID,0.100563,VALID,23.3744,VALID,4,VALID,0.532422,
2008-04-04, 00:31:04,VALID,1005.58,VALID,0,VALID,94.5676,VALID,0,VALID,23.3532,VALID,4,VALID,0.460156,
2008-04-04, 00:32:04,VALID,1005.56,VALID,0,VALID,94.6134,VALID,0.100563,VALID,23.3744,VALID,4,VALID,0.3875,
2008-04-04, 00:33:04,VALID,1005.57,VALID,0,VALID,94.6973,VALID,0,VALID,23.3957,VALID,4,VALID,0.478125,
2008-04-04, 00:34:04,VALID,1005.55,VALID,0,VALID,94.7431,VALID,0.100563,VALID,23.355,VALID,4,VALID,0.293359,
2008-04-04, 00:35:04,VALID,1005.54,VALID,0,VALID,94.7812,VALID,0.100563,VALID,23.3355,VALID,4,VALID,0.505078,
2008-04-04, 00:36:04,VALID,1005.57,VALID,0,VALID,94.8499,VALID,0.100563,VALID,23.3355,VALID,4,VALID,0.566406,
2008-04-04, 00:37:04,VALID,1005.56,VALID,0,VALID,94.9414,VALID,0.100563,VALID,23.3143,VALID,3,VALID,0.625,
2008-04-04, 00:38:04,VALID,1005.54,VALID,0,VALID,94.9719,VALID,0.100563,VALID,23.3143,VALID,360,VALID,0.572266,
2008-04-04, 00:39:04,VALID,1005.56,VALID,0,VALID,94.9872,VALID,0.100563,VALID,23.3355,VALID,358,VALID,0.451562,
2008-04-04, 00:40:04,VALID,1005.54,VALID,0,VALID,94.9872,VALID,0.100563,VALID,23.3355,VALID,358,VALID,0.33125,
2008-04-04, 00:41:04,VALID,1005.55,VALID,0,VALID,94.9948,VALID,0.100563,VALID,23.3355,VALID,358,VALID,0.378125,
2008-04-04, 00:42:04,VALID,1005.52,VALID,0,VALID,95.0482,VALID,0,VALID,23.316,VALID,358,VALID,0.257813,
2008-04-04, 00:43:04,VALID,1005.53,VALID,0,VALID,95.0635,VALID,0.100563,VALID,23.3355,VALID,358,VALID,0.41875,
2008-04-04, 00:44:04,VALID,1005.53,VALID,0,VALID,95.0558,VALID,0,VALID,23.3143,VALID,358,VALID,0.437109,
2008-04-04, 00:45:04,VALID,1005.51,VALID,0,VALID,95.0864,VALID,0.100563,VALID,23.316,VALID,358,VALID,0.292188,
2008-04-04, 00:46:04,VALID,1005.49,VALID,0,VALID,95.1093,VALID,0.100563,VALID,23.316,VALID,358,VALID,0.400391,
2008-04-04, 00:47:04,VALID,1005.51,VALID,0,VALID,95.1321,VALID,0,VALID,23.316,VALID,358,VALID,0.424219,
2008-04-04, 00:48:04,VALID,1005.49,VALID,0,VALID,95.1703,VALID,0.100563,VALID,23.2948,VALID,358,VALID,0.223047,
2008-04-04, 00:49:04,VALID,1005.46,VALID,0,VALID,95.2008,VALID,0,VALID,23.2754,VALID,358,VALID,0.0527344,
2008-04-04, 00:50:04,VALID,1005.43,VALID,0,VALID,95.1932,VALID,0,VALID,23.2771,VALID,358,VALID,0,
2008-04-04, 00:51:04,VALID,1005.41,VALID,0,VALID,95.2084,VALID,0.100563,VALID,23.2754,VALID,358,VALID,0.0320312,
2008-04-04, 00:52:04,VALID,1005.41,VALID,0,VALID,95.3076,VALID,0.100563,VALID,23.2754,VALID,358,VALID,0.129297,
2008-04-04, 00:53:04,VALID,1005.37,VALID,0,VALID,95.3534,VALID,0,VALID,23.2966,VALID,358,VALID,0.226172,
2008-04-04, 00:54:04,VALID,1005.35,VALID,0,VALID,95.422,VALID,0.100563,VALID,23.2966,VALID,358,VALID,0.0898438,
2008-04-04, 00:55:04,VALID,1005.34,VALID,0,VALID,95.422,VALID,0.100563,VALID,23.316,VALID,358,VALID,0.040625,
2008-04-04, 00:56:04,VALID,1005.32,VALID,0,VALID,95.4373,VALID,0,VALID,23.2754,VALID,359,VALID,0.2,
2008-04-04, 00:57:04,VALID,1005.29,VALID,0,VALID,95.4297,VALID,0,VALID,23.2966,VALID,359,VALID,0.05,
2008-04-04, 00:58:04,VALID,1005.28,VALID,0,VALID,95.4449,VALID,0.100563,VALID,23.2754,VALID,36,VALID,0.446484,
2008-04-04, 00:59:04,VALID,1005.27,VALID,0,VALID,95.4373,VALID,0.100563,VALID,23.2559,VALID,69,VALID,0.687891,
2008-04-04, 01:00:04,VALID,1005.25,VALID,0,VALID,95.4907,VALID,0.100563,VALID,23.2771,VALID,72,VALID,0.491016,
2008-04-04, 01:01:04,VALID,1005.25,VALID,0,VALID,95.5136,VALID,0.100563,VALID,23.316,VALID,71,VALID,0.439453,
2008-04-04, 01:02:04,VALID,1005.24,VALID,0,VALID,95.567,VALID,0.100563,VALID,23.3355,VALID,71,VALID,0.461328,
2008-04-04, 01:03:04,VALID,1005.22,VALID,0,VALID,95.6128,VALID,0.100563,VALID,23.3143,VALID,71,VALID,0.189063,
2008-04-04, 01:04:04,VALID,1005.23,VALID,0,VALID,95.5822,VALID,0.100563,VALID,23.3143,VALID,54,VALID,0.275391,
2008-04-04, 01:05:04,VALID,1005.24,VALID,0,VALID,95.5899,VALID,0.100563,VALID,23.3337,VALID,54,VALID,0.139844,
2008-04-04, 01:06:04,VALID,1005.25,VALID,0,VALID,95.567,VALID,0.100563,VALID,23.3337,VALID,54,VALID,0,
2008-04-04, 01:07:04,VALID,1005.23,VALID,0,VALID,95.5517,VALID,0.100563,VALID,23.3337,VALID,53,VALID,0,
2008-04-04, 01:08:04,VALID,1005.23,VALID,0,VALID,95.5517,VALID,0.100563,VALID,23.3532,VALID,53,VALID,0,
2008-04-04, 01:09:04,VALID,1005.21,VALID,0,VALID,95.5441,VALID,0,VALID,23.3762,VALID,53,VALID,0,
2008-04-04, 01:10:04,VALID,1005.19,VALID,0,VALID,95.5212,VALID,0.100563,VALID,23.3337,VALID,53,VALID,0,
2008-04-04, 01:11:04,VALID,1005.14,VALID,0,VALID,95.5899,VALID,0,VALID,23.355,VALID,53,VALID,0,
2008-04-04, 01:12:04,VALID,1005.11,VALID,0,VALID,95.5899,VALID,0,VALID,23.3744,VALID,53,VALID,0,
2008-04-04, 01:13:04,VALID,1005.08,VALID,0,VALID,95.567,VALID,0,VALID,23.355,VALID,53,VALID,0,
2008-04-04, 01:14:04,VALID,1005.04,VALID,0,VALID,95.5594,VALID,0,VALID,23.3337,VALID,16,VALID,0.295703,
2008-04-04, 01:15:04,VALID,1005,VALID,0,VALID,95.5899,VALID,0,VALID,23.3744,VALID,16,VALID,0.35625,
2008-04-04, 01:16:04,VALID,1004.96,VALID,0,VALID,95.6356,VALID,0,VALID,23.355,VALID,13,VALID,0.454688,
2008-04-04, 01:17:04,VALID,1004.93,VALID,0,VALID,95.6204,VALID,0,VALID,23.3744,VALID,12,VALID,0.352344,
2008-04-04, 01:18:04,VALID,1004.94,VALID,0,VALID,95.6356,VALID,0,VALID,23.3939,VALID,12,VALID,0.390234,
2008-04-04, 01:19:04,VALID,1004.92,VALID,0,VALID,95.5975,VALID,0.100563,VALID,23.3532,VALID,11,VALID,0.414453,
2008-04-04, 01:20:04,VALID,1004.93,VALID,0,VALID,95.5746,VALID,0,VALID,23.355,VALID,11,VALID,0.427734,
2008-04-04, 01:21:04,VALID,1004.92,VALID,0,VALID,95.5594,VALID,0,VALID,23.355,VALID,11,VALID,0.427734,
2008-04-04, 01:22:04,VALID,1004.93,VALID,0,VALID,95.5822,VALID,0,VALID,23.3337,VALID,11,VALID,0.478906,
2008-04-04, 01:23:04,VALID,1004.94,VALID,0,VALID,95.5822,VALID,0,VALID,23.3337,VALID,11,VALID,0.360938,
2008-04-04, 01:24:04,VALID,1004.93,VALID,0,VALID,95.5899,VALID,0.100563,VALID,23.355,VALID,11,VALID,0.351172,
2008-04-04, 01:25:04,VALID,1004.94,VALID,0,VALID,95.5822,VALID,0,VALID,23.3355,VALID,11,VALID,0.196484,
2008-04-04, 01:26:04,VALID,1004.91,VALID,0,VALID,95.6662,VALID,0,VALID,23.316,VALID,11,VALID,0.0632813,
2008-04-04, 01:27:04,VALID,1004.95,VALID,0,VALID,95.7119,VALID,0,VALID,23.3355,VALID,11,VALID,0.128125,
2008-04-04, 01:28:04,VALID,1004.92,VALID,0,VALID,95.7348,VALID,0,VALID,23.3567,VALID,11,VALID,0.24375,
2008-04-04, 01:29:04,VALID,1004.91,VALID,0,VALID,95.6814,VALID,0,VALID,23.2948,VALID,11,VALID,0.181641,
2008-04-04, 01:30:04,VALID,1004.89,VALID,0,VALID,95.7043,VALID,0.100563,VALID,23.3143,VALID,10,VALID,0.300781,
2008-04-04, 01:31:04,VALID,1004.88,VALID,0,VALID,95.7501,VALID,0,VALID,23.316,VALID,8,VALID,0.323828,
2008-04-04, 01:32:04,VALID,1004.87,VALID,0,VALID,95.7653,VALID,0,VALID,23.3355,VALID,8,VALID,0.288672,
2008-04-04, 01:33:04,VALID,1004.84,VALID,0,VALID,95.7501,VALID,0,VALID,23.316,VALID,8,VALID,0.298828,
2008-04-04, 01:34:04,VALID,1004.84,VALID,0,VALID,95.773,VALID,0,VALID,23.316,VALID,8,VALID,0.390234,
2008-04-04, 01:35:04,VALID,1004.81,VALID,0,VALID,95.7959,VALID,0,VALID,23.2948,VALID,8,VALID,0.342969,
2008-04-04, 01:36:04,VALID,1004.81,VALID,0,VALID,95.8035,VALID,0,VALID,23.3355,VALID,8,VALID,0.367188,
2008-04-04, 01:37:04,VALID,1004.82,VALID,0,VALID,95.8111,VALID,0,VALID,23.316,VALID,8,VALID,0.275391,
2008-04-04, 01:38:04,VALID,1004.81,VALID,0,VALID,95.834,VALID,0,VALID,23.2754,VALID,2,VALID,0.296094,
2008-04-04, 01:39:04,VALID,1004.77,VALID,0,VALID,95.8416,VALID,0,VALID,23.316,VALID,2,VALID,0.289063,
2008-04-04, 01:40:04,VALID,1004.73,VALID,0,VALID,95.8416,VALID,0,VALID,23.316,VALID,2,VALID,0.196484,
2008-04-04, 01:41:04,VALID,1004.77,VALID,0,VALID,95.8721,VALID,0,VALID,23.2966,VALID,2,VALID,0.196484,
2008-04-04, 01:42:04,VALID,1004.72,VALID,0,VALID,95.8645,VALID,0,VALID,23.2966,VALID,2,VALID,0.167969,
2008-04-04, 01:43:04,VALID,1004.71,VALID,0,VALID,95.895,VALID,0.100563,VALID,23.2754,VALID,2,VALID,0.0558594,
2008-04-04, 01:44:04,VALID,1004.73,VALID,0,VALID,95.8798,VALID,0,VALID,23.2966,VALID,2,VALID,0.230078,
2008-04-04, 01:45:04,VALID,1004.71,VALID,0,VALID,95.8798,VALID,0.100563,VALID,23.2754,VALID,2,VALID,0,
2008-04-04, 01:46:04,VALID,1004.69,VALID,0,VALID,95.9179,VALID,0.100563,VALID,23.2754,VALID,2,VALID,0.237891,
2008-04-04, 01:47:04,VALID,1004.7,VALID,0,VALID,95.9103,VALID,0,VALID,23.2771,VALID,2,VALID,0.182031,
2008-04-04, 01:48:04,VALID,1004.71,VALID,0,VALID,95.9179,VALID,0.100563,VALID,23.2559,VALID,2,VALID,0.170703,
2008-04-04, 01:49:04,VALID,1004.72,VALID,0,VALID,95.9255,VALID,0,VALID,23.2771,VALID,2,VALID,0.291406,
2008-04-04, 01:50:04,VALID,1004.72,VALID,0,VALID,95.9408,VALID,0,VALID,23.2559,VALID,2,VALID,0.393359,
2008-04-04, 01:51:04,VALID,1004.68,VALID,0,VALID,95.9332,VALID,0.100563,VALID,23.2771,VALID,2,VALID,0.428125,
2008-04-04, 01:52:04,VALID,1004.73,VALID,0,VALID,95.9408,VALID,0,VALID,23.2364,VALID,2,VALID,0.499219,
2008-04-04, 01:53:04,VALID,1004.69,VALID,0,VALID,95.9484,VALID,0,VALID,23.2577,VALID,2,VALID,0.397266,
2008-04-04, 01:54:04,VALID,1004.7,VALID,0,VALID,95.9332,VALID,0,VALID,23.2577,VALID,2,VALID,0.450781,
2008-04-04, 01:55:04,VALID,1004.68,VALID,0,VALID,95.9713,VALID,0,VALID,23.2577,VALID,2,VALID,0.4625,
2008-04-04, 01:56:04,VALID,1004.71,VALID,0,VALID,95.9637,VALID,0,VALID,23.2382,VALID,2,VALID,0.392578,
2008-04-04, 01:57:04,VALID,1004.71,VALID,0,VALID,95.9713,VALID,0,VALID,23.217,VALID,2,VALID,0.435937,
2008-04-04, 01:58:04,VALID,1004.7,VALID,0,VALID,96.0171,VALID,0,VALID,23.217,VALID,2,VALID,0.473437,
2008-04-04, 01:59:04,VALID,1004.69,VALID,0,VALID,96.0552,VALID,0,VALID,23.217,VALID,2,VALID,0.520312,
2008-04-04, 02:00:04,VALID,1004.72,VALID,0,VALID,96.0629,VALID,0,VALID,23.217,VALID,2,VALID,0.54375,
2008-04-04, 02:01:04,VALID,1004.69,VALID,0,VALID,96.0781,VALID,0,VALID,23.2382,VALID,357,VALID,0.585547,
2008-04-04, 02:02:04,VALID,1004.69,VALID,0,VALID,96.0857,VALID,0,VALID,23.2577,VALID,356,VALID,0.627734,
2008-04-04, 02:03:04,VALID,1004.69,VALID,0,VALID,96.101,VALID,0,VALID,23.2577,VALID,358,VALID,0.5625,
2008-04-04, 02:04:04,VALID,1004.7,VALID,0,VALID,96.101,VALID,0,VALID,23.2364,VALID,349,VALID,0.590625,
2008-04-04, 02:05:04,VALID,1004.69,VALID,0,VALID,96.1163,VALID,0,VALID,23.2771,VALID,348,VALID,0.580859,
2008-04-04, 02:06:04,VALID,1004.67,VALID,0,VALID,96.101,VALID,0,VALID,23.2771,VALID,350,VALID,0.537891,
2008-04-04, 02:07:04,VALID,1004.66,VALID,0,VALID,96.1163,VALID,0,VALID,23.2966,VALID,352,VALID,0.489844,
2008-04-04, 02:08:04,VALID,1004.65,VALID,0,VALID,96.0629,VALID,0,VALID,23.2771,VALID,352,VALID,0.480469,
2008-04-04, 02:09:04,VALID,1004.69,VALID,0,VALID,96.0323,VALID,0,VALID,23.2771,VALID,352,VALID,0.473047,
2008-04-04, 02:10:04,VALID,1004.62,VALID,0,VALID,96.0323,VALID,0,VALID,23.2771,VALID,352,VALID,0.425,
2008-04-04, 02:11:04,VALID,1004.65,VALID,0,VALID,96.04,VALID,0.100563,VALID,23.2983,VALID,352,VALID,0.591406,
2008-04-04, 02:12:04,VALID,1004.62,VALID,0,VALID,96.0705,VALID,0,VALID,23.2771,VALID,346,VALID,0.722656,
2008-04-04, 02:13:04,VALID,1004.66,VALID,0,VALID,96.0781,VALID,0,VALID,23.2771,VALID,2,VALID,0.785547,
2008-04-04, 02:14:04,VALID,1004.64,VALID,0,VALID,96.0934,VALID,0,VALID,23.2966,VALID,359,VALID,0.6375,
2008-04-04, 02:15:04,VALID,1004.63,VALID,0,VALID,96.0476,VALID,0,VALID,23.2966,VALID,358,VALID,0.658984,
2008-04-04, 02:16:04,VALID,1004.66,VALID,0,VALID,96.0857,VALID,0,VALID,23.2966,VALID,348,VALID,0.150781,
2008-04-04, 02:17:04,VALID,1004.66,VALID,0,VALID,96.0934,VALID,0.100563,VALID,23.2966,VALID,348,VALID,0.302344,
2008-04-04, 02:18:04,VALID,1004.65,VALID,0,VALID,96.0857,VALID,0,VALID,23.2966,VALID,350,VALID,0.583594,
2008-04-04, 02:19:04,VALID,1004.66,VALID,0,VALID,96.0781,VALID,0,VALID,23.3355,VALID,354,VALID,0.408594,
2008-04-04, 02:20:04,VALID,1004.65,VALID,0,VALID,96.0705,VALID,0,VALID,23.316,VALID,354,VALID,0.342187,
2008-04-04, 02:21:04,VALID,1004.69,VALID,0,VALID,96.0018,VALID,0,VALID,23.316,VALID,354,VALID,0.335156,
2008-04-04, 02:22:04,VALID,1004.66,VALID,0,VALID,95.9713,VALID,0,VALID,23.3373,VALID,354,VALID,0.305469,
2008-04-04, 02:23:04,VALID,1004.64,VALID,0,VALID,95.9484,VALID,0,VALID,23.3373,VALID,354,VALID,0.288672,
2008-04-04, 02:24:04,VALID,1004.63,VALID,0,VALID,95.9408,VALID,0,VALID,23.2983,VALID,354,VALID,0.448047,
2008-04-04, 02:25:04,VALID,1004.63,VALID,0,VALID,95.9408,VALID,0,VALID,23.339,VALID,354,VALID,0.507031,
2008-04-04, 02:26:04,VALID,1004.62,VALID,0,VALID,96.0171,VALID,0,VALID,23.2966,VALID,355,VALID,0.279687,
2008-04-04, 02:27:04,VALID,1004.59,VALID,0,VALID,96.0171,VALID,0,VALID,23.3178,VALID,355,VALID,0.191406,
2008-04-04, 02:28:04,VALID,1004.57,VALID,0,VALID,96.0095,VALID,0,VALID,23.3373,VALID,356,VALID,0.275391,
2008-04-04, 02:29:04,VALID,1004.55,VALID,0,VALID,95.9942,VALID,0,VALID,23.3585,VALID,355,VALID,0.446875,
2008-04-04, 02:30:04,VALID,1004.54,VALID,0,VALID,95.9789,VALID,0,VALID,23.378,VALID,354,VALID,0.392969,
2008-04-04, 02:31:04,VALID,1004.55,VALID,0,VALID,95.8798,VALID,0,VALID,23.3567,VALID,355,VALID,0.550781,
2008-04-04, 02:32:04,VALID,1004.52,VALID,0,VALID,95.834,VALID,0,VALID,23.3762,VALID,356,VALID,0.50625,
2008-04-04, 02:33:04,VALID,1004.51,VALID,0,VALID,95.834,VALID,0,VALID,23.3762,VALID,354,VALID,0.130078,
2008-04-04, 02:34:04,VALID,1004.5,VALID,0,VALID,95.7806,VALID,0,VALID,23.3762,VALID,354,VALID,0.059375,
2008-04-04, 02:35:04,VALID,1004.45,VALID,0,VALID,95.7501,VALID,0,VALID,23.3957,VALID,354,VALID,0.492969,
2008-04-04, 02:36:04,VALID,1004.47,VALID,0,VALID,95.6585,VALID,0,VALID,23.3957,VALID,355,VALID,0.0113281,
2008-04-04, 02:37:04,VALID,1004.47,VALID,0,VALID,95.5975,VALID,0,VALID,23.3957,VALID,348,VALID,0.242969,
2008-04-04, 02:38:04,VALID,1004.44,VALID,0,VALID,95.4983,VALID,0,VALID,23.3939,VALID,320,VALID,0.3375,
2008-04-04, 02:39:04,VALID,1004.41,VALID,0,VALID,95.361,VALID,0,VALID,23.3921,VALID,328,VALID,0.522266,
2008-04-04, 02:40:04,VALID,1004.41,VALID,0,VALID,95.1627,VALID,0,VALID,23.4328,VALID,356,VALID,0.344141,
2008-04-04, 02:41:04,VALID,1004.38,VALID,0,VALID,95.0864,VALID,0,VALID,23.4311,VALID,355,VALID,0.276953,
2008-04-04, 02:42:04,VALID,1004.38,VALID,0,VALID,94.949,VALID,0,VALID,23.4718,VALID,352,VALID,0.204688,
2008-04-04, 02:43:04,VALID,1004.39,VALID,0,VALID,94.7736,VALID,0,VALID,23.4718,VALID,319,VALID,0.383984,
2008-04-04, 02:44:04,VALID,1004.37,VALID,0,VALID,94.7583,VALID,0,VALID,23.4912,VALID,309,VALID,0,
2008-04-04, 02:45:04,VALID,1004.36,VALID,0,VALID,94.5142,VALID,0,VALID,23.4912,VALID,350,VALID,0.669922,
2008-04-04, 02:46:04,VALID,1004.39,VALID,0,VALID,94.293,VALID,0,VALID,23.5107,VALID,351,VALID,0.395703,
2008-04-04, 02:47:04,VALID,1004.39,VALID,0,VALID,94.1404,VALID,0,VALID,23.5107,VALID,349,VALID,0.509375,
2008-04-04, 02:48:04,VALID,1004.39,VALID,0,VALID,94.0107,VALID,0,VALID,23.5302,VALID,350,VALID,0.496484,
2008-04-04, 02:49:04,VALID,1004.4,VALID,0,VALID,93.9115,VALID,0,VALID,23.5089,VALID,353,VALID,0.435547,
2008-04-04, 02:50:04,VALID,1004.37,VALID,0,VALID,93.7666,VALID,0,VALID,23.5302,VALID,348,VALID,0.419922,
2008-04-04, 02:51:04,VALID,1004.36,VALID,0,VALID,93.5911,VALID,0,VALID,23.5302,VALID,335,VALID,0.507031,
2008-04-04, 02:52:04,VALID,1004.34,VALID,0,VALID,93.5377,VALID,0,VALID,23.5302,VALID,337,VALID,0.307031,
2008-04-04, 02:53:04,VALID,1004.33,VALID,0,VALID,93.4767,VALID,0,VALID,23.5319,VALID,342,VALID,0.475781,
2008-04-04, 02:54:04,VALID,1004.32,VALID,0,VALID,93.3088,VALID,0,VALID,23.5709,VALID,343,VALID,0.637891,
2008-04-04, 02:55:04,VALID,1004.3,VALID,0,VALID,93.3394,VALID,0,VALID,23.5709,VALID,346,VALID,0.463672,
2008-04-04, 02:56:04,VALID,1004.29,VALID,0,VALID,93.3851,VALID,0,VALID,23.5514,VALID,346,VALID,0.335547,
2008-04-04, 02:57:04,VALID,1004.29,VALID,0,VALID,93.3165,VALID,0,VALID,23.5302,VALID,346,VALID,0.396875,
2008-04-04, 02:58:04,VALID,1004.26,VALID,0,VALID,93.4156,VALID,0,VALID,23.5125,VALID,347,VALID,0.259375,
2008-04-04, 02:59:04,VALID,1004.3,VALID,0,VALID,93.5224,VALID,0,VALID,23.493,VALID,347,VALID,0.248828,
2008-04-04, 03:00:04,VALID,1004.3,VALID,0,VALID,93.6598,VALID,0,VALID,23.4735,VALID,347,VALID,0.173047,
2008-04-04, 03:01:04,VALID,1004.3,VALID,0,VALID,93.7589,VALID,0,VALID,23.4753,VALID,347,VALID,0.0105469,
2008-04-04, 03:02:04,VALID,1004.28,VALID,0,VALID,93.8505,VALID,0,VALID,23.4559,VALID,347,VALID,0,
2008-04-04, 03:03:04,VALID,1004.3,VALID,0,VALID,93.881,VALID,0,VALID,23.4364,VALID,347,VALID,0,
2008-04-04, 03:04:04,VALID,1004.32,VALID,0,VALID,93.9573,VALID,0,VALID,23.4169,VALID,347,VALID,0,
2008-04-04, 03:05:04,VALID,1004.3,VALID,0,VALID,94.0183,VALID,0,VALID,23.3762,VALID,347,VALID,0.301953,
2008-04-04, 03:06:04,VALID,1004.31,VALID,0,VALID,94.0488,VALID,0,VALID,23.3762,VALID,347,VALID,0.204688,
2008-04-04, 03:07:04,VALID,1004.32,VALID,0,VALID,94.0717,VALID,0,VALID,23.3373,VALID,347,VALID,0.396875,
2008-04-04, 03:08:04,VALID,1004.32,VALID,0,VALID,94.0641,VALID,0,VALID,23.316,VALID,347,VALID,0.375,
2008-04-04, 03:09:04,VALID,1004.31,VALID,0,VALID,94.0641,VALID,0,VALID,23.316,VALID,347,VALID,0.285547,
2008-04-04, 03:10:04,VALID,1004.32,VALID,0,VALID,93.9954,VALID,0.100563,VALID,23.2754,VALID,347,VALID,0.297266,
2008-04-04, 03:11:04,VALID,1004.31,VALID,0,VALID,94.0183,VALID,0,VALID,23.2771,VALID,347,VALID,0.327734,
2008-04-04, 03:12:04,VALID,1004.34,VALID,0,VALID,94.0717,VALID,0.100563,VALID,23.2771,VALID,347,VALID,0.300781,
2008-04-04, 03:13:04,VALID,1004.31,VALID,0,VALID,94.1556,VALID,0,VALID,23.2983,VALID,347,VALID,0.382813,
2008-04-04, 03:14:04,VALID,1004.32,VALID,0,VALID,94.1938,VALID,0,VALID,23.2364,VALID,347,VALID,0.455859,
2008-04-04, 03:15:04,VALID,1004.29,VALID,0,VALID,94.2777,VALID,0,VALID,23.2382,VALID,347,VALID,0.430078,
2008-04-04, 03:16:04,VALID,1004.28,VALID,0,VALID,94.3082,VALID,0.100563,VALID,23.1975,VALID,347,VALID,0.439844,
2008-04-04, 03:17:04,VALID,1004.28,VALID,0,VALID,94.4227,VALID,0.100563,VALID,23.1586,VALID,347,VALID,0.407813,
2008-04-04, 03:18:04,VALID,1004.28,VALID,0,VALID,94.4837,VALID,0,VALID,23.1391,VALID,347,VALID,0.45625,
2008-04-04, 03:19:04,VALID,1004.27,VALID,0,VALID,94.5676,VALID,0,VALID,23.1409,VALID,347,VALID,0.490625,
2008-04-04, 03:20:04,VALID,1004.27,VALID,0,VALID,94.6363,VALID,0,VALID,23.1214,VALID,347,VALID,0.505078,
2008-04-04, 03:21:04,VALID,1004.29,VALID,0,VALID,94.6897,VALID,0,VALID,23.0807,VALID,347,VALID,0.501953,
2008-04-04, 03:22:04,VALID,1004.32,VALID,0,VALID,94.7812,VALID,0,VALID,23.0807,VALID,347,VALID,0.357031,
2008-04-04, 03:23:04,VALID,1004.32,VALID,0,VALID,94.8194,VALID,0.100563,VALID,23.0825,VALID,347,VALID,0.478906,
2008-04-04, 03:24:04,VALID,1004.3,VALID,0,VALID,94.8422,VALID,0.100563,VALID,23.0436,VALID,347,VALID,0.459766,
2008-04-04, 03:25:04,VALID,1004.3,VALID,0,VALID,94.9414,VALID,0,VALID,23.0241,VALID,347,VALID,0.507422,
2008-04-04, 03:26:04,VALID,1004.31,VALID,0,VALID,95.0177,VALID,0,VALID,23.0241,VALID,349,VALID,0.669531,
2008-04-04, 03:27:04,VALID,1004.31,VALID,0,VALID,95.1016,VALID,0,VALID,23.0046,VALID,350,VALID,0.598047,
2008-04-04, 03:28:04,VALID,1004.34,VALID,0,VALID,95.1779,VALID,0,VALID,22.9852,VALID,351,VALID,0.49375,
2008-04-04, 03:29:04,VALID,1004.34,VALID,0,VALID,95.1703,VALID,0,VALID,22.9852,VALID,351,VALID,0.599609,
2008-04-04, 03:30:04,VALID,1004.32,VALID,0,VALID,95.2084,VALID,0.100563,VALID,22.9657,VALID,350,VALID,0.569141,
2008-04-04, 03:31:04,VALID,1004.37,VALID,0,VALID,95.2695,VALID,0,VALID,22.9657,VALID,349,VALID,0.311719,
2008-04-04, 03:32:04,VALID,1004.36,VALID,0,VALID,95.2542,VALID,0,VALID,22.9463,VALID,349,VALID,0,
2008-04-04, 03:33:04,VALID,1004.37,VALID,0,VALID,95.2695,VALID,0,VALID,22.9657,VALID,349,VALID,0.264062,
2008-04-04, 03:34:04,VALID,1004.37,VALID,0,VALID,95.2847,VALID,0,VALID,22.9251,VALID,349,VALID,0.129688,
2008-04-04, 03:35:04,VALID,1004.36,VALID,0,VALID,95.2695,VALID,0.100563,VALID,22.9445,VALID,349,VALID,0.283984,
2008-04-04, 03:36:04,VALID,1004.34,VALID,0,VALID,95.2237,VALID,0.100563,VALID,22.9463,VALID,349,VALID,0.187109,
2008-04-04, 03:37:04,VALID,1004.35,VALID,0,VALID,95.1703,VALID,0,VALID,22.9657,VALID,352,VALID,0.696094,
2008-04-04, 03:38:04,VALID,1004.36,VALID,0,VALID,95.1245,VALID,0,VALID,22.9463,VALID,357,VALID,0.320313,
2008-04-04, 03:39:04,VALID,1004.34,VALID,0,VALID,95.0482,VALID,0,VALID,22.9869,VALID,358,VALID,0.223438,
2008-04-04, 03:40:04,VALID,1004.35,VALID,0,VALID,94.9796,VALID,0,VALID,22.9657,VALID,354,VALID,0.341406,
2008-04-04, 03:41:04,VALID,1004.36,VALID,0,VALID,94.9109,VALID,0,VALID,22.9657,VALID,354,VALID,0.251172,
2008-04-04, 03:42:04,VALID,1004.36,VALID,0,VALID,94.8804,VALID,0,VALID,22.9657,VALID,354,VALID,0.0371094,
2008-04-04, 03:43:04,VALID,1004.33,VALID,0,VALID,94.8041,VALID,0,VALID,22.9463,VALID,354,VALID,0.119141,
2008-04-04, 03:44:04,VALID,1004.33,VALID,0,VALID,94.7507,VALID,0,VALID,22.9675,VALID,354,VALID,0,